TIANLIAN 1-04

导读 | 豆包AI

TIANLIAN 1-04(天链一号04星)是中国研制的中继卫星,于北京时间2016年11月22日在西昌卫星发射中心由长征三号丙运载火箭发射升空。它入轨后与天链一号01、02、03星组网,实现中继卫星系统全球覆盖,为中国神舟飞船、空间站等航天器提供天基测控与数据中继服务,大幅提升天地测控覆盖率与通信效率,支撑中国载人航天工程等多项重大航天任务开展。

Basic Information
目录编号:
41869
目录名称:
TIANLIAN 1-04
国际标识:
2016-072A
轨道中心:
EARTH
卫星名称:
TIANLIAN 1-04
卫星全名:
--
卫星状态:
在轨 (已飞行3399 天)
发射日期:
2016-11-22 UTC
国别 :
中国 (CN)
星等 :
--
Orbit Information
数据来源 国际轨道数据 AOE轨道数据
星历时间 2026-03-13T01:59:18+0800
1天前
查看轨道信息
2026-03-12T21:00:00+0800
1天前
查看轨道信息
半长轴 42163.691km 42163.523km
偏心率 0.0040569 0.004065
轨道倾角 0.618° 0.617°
近地点辐角 95.095° 94.919°
升交点赤经 83.493° 83.500°
平近点角 78.444° 3.581°
近地点 35614.5km 35613.991km
远地点 35956.608km 35956.781km
周期 1436.044分钟 1436.035分钟
每日圈数 1.002755 1.002761
Detailed Information
使用方式:
暂无
2D Orbit Map
3D Orbit Map
Orbit Altitude Analysis Chart
Orbit Inclination Analysis Chart
Orbit Comprehensive Analysis Chart
View Comprehensive Chart